STARLINK-35329

Last updated on Mon Oct 20 2025 00:02:08 GMT+0000 (Coordinated Universal Time)

1 65908U 25224AC 25292.25002315 -.01415499 00000+0 -64571-2 0 9990 2 65908 53.1507 313.3043 0001051 86.0999 127.7464 15.85987533 3149
UTC large
Height (km)
Speed (km/s)
/
Latitude / Longitude
Inclination (degrees)
Orbital Period (minutes)
Azimuth
Elevation
Range (km)
Doppler Factor

Next 0 passes for location: London (51.5072 / 0.1276)

Sorry there are no passes over London.